This demonstration page uses our WeatherBlox Daily Observations layout. Learn more.

Left ArrowRight Arrow

34.02893, -84.19858

Hourly Observations for December 1, 2022

Temp ( °F °C ) Dew Point ( °F °C ) Humidity (%) Winds ( mph kmh ) Pressure ( in mb ) Visibility ( mi km ) Precip ( " mm )
12:53 am 00:53 Clear 38 3.3 22 -5.6 52 52 undefined N/A 30.33 1027 10 16 0.00 0.00
1:53 am 01:53 Clear 37 2.8 21 -6.1 52 52 NNW 9 15 30.34 1027 10 16 0.00 0.00
2:53 am 02:53 Clear 36 2.2 20 -6.7 52 52 NNW 8 13 30.35 1028 10 16 0.00 0.00
3:53 am 03:53 Clear 35 1.7 20 -6.7 54 54 NNW 8 13 30.36 1028 10 16 0.00 0.00
4:53 am 04:53 Clear 34 1.1 20 -6.7 56 56 NW 8 13 30.37 1028 10 16 0.00 0.00
5:53 am 05:53 Clear 32 0 19 -7.2 58 58 WNW 3 6 30.39 1029 10 16 0.00 0.00
6:53 am 06:53 Clear 29 -1.7 20 -6.7 69 69 SSW 3 6 30.43 1031 10 16 0.00 0.00
7:53 am 07:53 Sunny 30 -1.1 21 -6.1 69 69 NNW 3 6 30.44 1031 10 16 0.00 0.00
8:53 am 08:53 Sunny 37 2.8 19 -7.2 48 48 Calm 30.45 1031 10 16 0.00 0.00
9:53 am 09:53 Sunny 42 5.6 21 -6.1 43 43 N 5 7 30.47 1032 10 16 0.00 0.00
10:53 am 10:53 Sunny 45 7.2 18 -7.8 33 33 SSE 3 6 30.48 1032 10 16 0.00 0.00
11:53 am 11:53 Sunny 50 10 19 -7.2 29 29 VRB 5 7 30.47 1032 10 16 0.00 0.00
12:53 pm 12:53 Sunny 53 11.7 16 -8.9 23 23 undefined N/A 30.45 1031 10 16 0.00 0.00
1:53 pm 13:53 Sunny 55 12.8 19 -7.2 24 24 S 7 11 30.42 1030 10 16 0.00 0.00
2:53 pm 14:53 Sunny 56 13.3 22 -5.6 26 26 Calm 30.42 1030 10 16 0.00 0.00
3:53 pm 15:53 Sunny 55 12.8 22 -5.6 27 27 Calm 30.42 1030 10 16 0.00 0.00
4:53 pm 16:53 Sunny 53 11.7 25 -3.9 33 33 ESE 3 6 30.43 1031 10 16 0.00 0.00
5:53 pm 17:53 Clear 47 8.3 26 -3.3 44 44 Calm 30.46 1031 10 16 0.00 0.00
6:53 pm 18:53 Clear 42 5.6 29 -1.7 59 59 E 3 6 30.47 1032 10 16 0.00 0.00
8:53 pm 20:53 Clear 41 5 26 -3.3 55 55 Calm 30.48 1032 10 16 0.00 0.00
9:53 pm 21:53 Clear 42 5.6 26 -3.3 53 53 Calm 30.47 1032 10 16 0.00 0.00
10:53 pm 22:53 Clear 42 5.6 26 -3.3 53 53 E 3 6 30.48 1032 10 16 0.00 0.00
11:53 pm 23:53 Clear 40 4.4 26 -3.3 57 57 Calm 30.47 1032 10 16 0.00 0.00

Powered by AerisWeather